Location: Luxembourg
(49.6117°N, 6.1300°E)
Time: 06:26:46
(UTC+02:00)

ISS - Visible Passes

Search period start: 26 April 2019 00:00
Search period end: 06 May 2019 00:00
Orbit: 408 x 410 km, 51.6° (Epoch: 26 April)

Date Brightness Start Highest point End Pass type
(mag) Time Alt. Az. Time Alt. Az. Time Alt. Az.
30 Apr -1.2 05:21:13 10° S 05:22:58 14° SE 05:24:43 10° ESE visible
02 May -2.2 05:14:40 10° SSW 05:17:30 27° SE 05:20:21 10° E visible
03 May -1.7 04:25:38 15° SSE 04:26:49 17° SE 04:29:05 10° E visible
04 May -1.1 03:36:36 11° SE 03:36:36 11° SE 03:37:03 10° ESE visible
04 May -3.3 05:09:20 13° SW 05:12:08 50° SSE 05:15:21 10° ENE visible
05 May -2.8 04:20:15 26° S 04:21:19 33° SSE 04:24:21 10° E visible
